WY1U-1 Weather Reports


time (UTC)temp
F
wind
direction
speed
knots
gust
knots
rain 1hr
in
rain 24hr
in
rain mn
in
humidity
%
barometer
mb
20260905000151 72 0 0.0 0.0 0.00 0.12 0.12 74 1010.4
20260904230151 79 0 0.0 0.0 0.00 0.12 0.12 59 1010.1
20260904220153 83 285 0.9 5.2 0.00 0.12 0.12 47 1009.9
20260904210151 83 4 0.9 3.5 0.00 0.12 0.12 46 1010.1
20260904200151 83 304 2.6 8.7 0.00 0.12 0.12 45 1010.2
20260904190151 82 289 4.3 13.0 0.00 0.12 0.12 48 1010.4
20260904180152 82 15 2.6 6.1 0.00 0.12 0.12 48 1010.6
20260904170156 82 19 1.7 5.2 0.00 0.12 0.12 53 1010.6
20260904140152 77 5 2.6 7.8 0.00 0.12 0.12 76 1011.2
20260904120152 72 0 0.0 0.0 0.00 0.12 0.12 95 1011.2
20260904110150 70 0 0.0 0.0 0.00 0.12 0.12 95 1010.7
20260904103150 71 0 0.0 0.0 0.00 0.12 0.12 95 1010.3
20260904070152 72 0 0.0 0.0 0.00 0.00 0.00 95 1010.2
20260904050152 72 0 0.0 0.0 0.00 0.32 0.00 93 1011.3
20260904040150 72 0 0.0 0.0 0.00 0.32 0.00 92 1011.9
20260904033150 73 0 0.0 0.0 0.00 0.32 0.32 91 1012.1
20260904030150 73 0 0.0 0.0 0.00 0.32 0.32 91 1012.2
20260904023150 74 0 0.0 0.0 0.00 0.32 0.32 90 1012.1
20260904020152 74 0 0.0 0.0 0.00 0.32 0.32 90 1012.4
20260904010150 75 0 0.0 0.0 0.00 0.32 0.32 87 1012.5